Kezdőlap
METAR-TAF:

METAR-TAF

Repülőterek :

Salida, Colorado, Amerikai Egyesült Államok

földrajzi szélesség: 38-32-18N, földrajzi hosszúság: 106-02-55W, magasság: 2293 m

Jelenlegi meteorológiai megfigyelések

A jelentés 38 perccel ezelõtt készült, 04:55 UTC
Délnyugati szél 3 kt
Hőmérséklet 13°C
Páratartalom 22%
Légköri nyomás 1021 hPa
Látótávolság: 16.1 km
Szakadozott felhőzet 15000 lábon

METAR: KANK 130455Z AUTO 23003KT 10SM BKN150 13/M08 A3014 RMK AO2 T01261085

Idő: 23:33 (05:33 UTC)


TAF: hiányzik

Meteorológiai megfigyelések és előrejelzések több, mint 4000 repülőtéren (METAR és TAF jelentéseket).

A térképen piros és sárga pontok jelzik az elérhető meteorológiai állomásokat.

Mozgassa az egeret a pont fölött, hogy megjelenjen az állomás neve.

Azután kattintson az időjárási megfigyelések és előrejelzések megtekintéséhez.

A térkép megváltoztatása: kattintson a fekete keresztel jelölt zöld gombra ráközelítéshez, a vonallal jelölt zöld gombra távolításhoz, vagy a zöld nyilakra a szomszédos térképek eléréséhez.


METAR-TAF: